Weather History for Knox, IN

Change the Weather History Date:

Monday, February 11, 2013

  Actual Average (KVPZ) Record (KVPZ)
Temperature  
Mean Temperature 40 °F 26 °F  
Max Temperature 49 °F 34 °F 70 °F (1999)
Min Temperature 30 °F 19 °F -11 °F (2014)
Degree Days  
Heating Degree Days 26 39  
Month to date heating degree days 438  
Since 1 July heating degree days 4123  
Cooling Degree Days 0 0  
Month to date cooling degree days 0  
Year to date cooling degree days 0  
Moisture  
Dew Point 27 °F    
Average Humidity 71    
Maximum Humidity 92    
Minimum Humidity 66    
Precipitation  
Precipitation 0.00 in 0.06 in 1.48 in (2009)
Month to date precipitation 0.53  
Year to date precipitation 2.28  
Sea Level Pressure  
Sea Level Pressure 29.79 in    
Wind  
Wind Speed 22 mph (WSW)    
Max Wind Speed 37 mph    
Max Gust Speed 47 mph    
Visibility 10 miles    
Events      
T = Trace of Precipitation, MM = Missing Value Source: NWS Daily Summary

Daily Weather History Graph

Daily Weather History Graph

Search for Another Location

Airport:

Trip Planner

Search our weather history database for the weather conditions in past years. The results will help you decide how hot, cold, wet, or windy it might be!

Date:

Astronomy

Feb. 11, 2013 Rise Set
Actual Time 6:46 AM CST 5:15 PM CST
Civil Twilight 6:17 AM CST 5:44 PM CST
Nautical Twilight 5:45 AM CST 6:17 PM CST
Astronomical Twilight 5:13 AM CST 6:49 PM CST
Moon 7:09 AM CST (2/11) 7:14 PM CST (2/11)
Length of Visible Light 11h 26m
Length of Day
10h 29m
Waxing Crescent, 3% of the Moon is Illuminated
Feb 11
Waxing Crescent
Feb 17
First Quarter
Feb 25
Full
Mar 4
Last Quarter
Mar 11
New

Hourly Weather History & Observations

Time (CST) Temp. Windchill Dew Point Humidity Pressure Visibility Wind Dir Wind Speed Gust Speed Precip Events Conditions
12:15 AM 49.1 °F - 46.8 °F 92% 29.58 in 10.0 mi SSW 19.6 mph 25.3 mph N/A   Overcast
12:35 AM 49.1 °F - 46.6 °F 91% 29.59 in 10.0 mi WSW 16.1 mph 24.2 mph N/A   Overcast
12:55 AM 48.4 °F - 42.4 °F 80% 29.58 in 10.0 mi WSW 24.2 mph 32.2 mph N/A   Overcast
1:15 AM 47.5 °F - 37.8 °F 69% 29.58 in 10.0 mi WSW 23.0 mph 29.9 mph N/A   Mostly Cloudy
1:35 AM 46.6 °F - 36.9 °F 69% 29.59 in 10.0 mi SW 23.0 mph 29.9 mph N/A   Scattered Clouds
1:55 AM 45.5 °F 37.1 °F 35.1 °F 67% 29.59 in 10.0 mi WSW 23.0 mph 32.2 mph N/A   Scattered Clouds
2:15 AM 44.4 °F 35.5 °F 33.8 °F 66% 29.59 in 10.0 mi SW 24.2 mph 31.1 mph N/A   Scattered Clouds
2:35 AM 43.7 °F 35.7 °F 33.4 °F 67% 29.60 in 10.0 mi WSW 18.4 mph 31.1 mph N/A   Mostly Cloudy
3:15 AM 41.9 °F 32.3 °F 33.4 °F 72% 29.60 in 10.0 mi WSW 23.0 mph 28.8 mph N/A   Mostly Cloudy
3:35 AM 41.2 °F 31.9 °F 32.4 °F 71% 29.61 in 10.0 mi WSW 20.7 mph 33.4 mph N/A   Overcast
3:55 AM 40.3 °F 31.0 °F 31.8 °F 72% 29.61 in 10.0 mi WSW 19.6 mph 28.8 mph N/A   Overcast
4:15 AM 39.9 °F 28.2 °F 31.3 °F 71% 29.62 in 10.0 mi WSW 31.1 mph 39.1 mph N/A   Overcast
4:35 AM 39.0 °F 29.3 °F 30.0 °F 70% 29.63 in 10.0 mi WSW 19.6 mph 36.8 mph N/A   Overcast
4:55 AM 38.1 °F 27.3 °F 29.3 °F 71% 29.64 in 10.0 mi WSW 23.0 mph 32.2 mph N/A   Overcast
5:15 AM 37.6 °F 26.9 °F 29.3 °F 72% 29.65 in 10.0 mi WSW 21.9 mph 36.8 mph N/A   Overcast
5:35 AM 37.0 °F 24.9 °F 29.1 °F 73% 29.65 in 10.0 mi WSW 27.6 mph 34.5 mph N/A   Overcast
5:55 AM 36.1 °F 23.0 °F 28.0 °F 72% 29.67 in 10.0 mi West 31.1 mph 39.1 mph N/A   Overcast
6:15 AM 35.1 °F 22.0 °F 26.8 °F 72% 29.68 in 10.0 mi WSW 28.8 mph 38.0 mph N/A   Overcast
6:35 AM 34.7 °F 22.0 °F 26.2 °F 71% 29.68 in 10.0 mi WSW 26.5 mph 36.8 mph N/A   Overcast
6:55 AM 34.3 °F 20.8 °F 25.5 °F 70% 29.69 in 10.0 mi WSW 29.9 mph 38.0 mph N/A   Overcast
7:15 AM 34.5 °F 20.6 °F 24.8 °F 68% 29.70 in 10.0 mi WSW 32.2 mph 40.3 mph N/A   Overcast
7:35 AM 34.3 °F 22.9 °F 25.2 °F 69% 29.71 in 10.0 mi WSW 20.7 mph 35.7 mph N/A   Overcast
7:55 AM 34.0 °F 21.0 °F 25.0 °F 70% 29.72 in 10.0 mi West 26.5 mph 35.7 mph N/A   Overcast
8:15 AM 33.8 °F 22.5 °F 24.8 °F 70% 29.73 in 10.0 mi West 19.6 mph 34.5 mph N/A   Overcast
8:35 AM 33.6 °F 21.3 °F 25.0 °F 71% 29.74 in 10.0 mi WSW 23.0 mph 28.8 mph N/A   Overcast
8:55 AM 33.8 °F 22.5 °F 24.4 °F 69% 29.74 in 10.0 mi WSW 19.6 mph 34.5 mph N/A   Overcast
9:15 AM 33.8 °F 22.8 °F 24.4 °F 69% 29.75 in 10.0 mi WSW 18.4 mph 25.3 mph N/A   Overcast
9:35 AM 33.8 °F 21.3 °F 24.6 °F 69% 29.75 in 10.0 mi WSW 24.2 mph 42.6 mph N/A   Overcast
9:55 AM 33.8 °F 21.6 °F 24.3 °F 68% 29.75 in 10.0 mi WSW 23.0 mph 36.8 mph N/A   Overcast
10:15 AM 33.8 °F 21.6 °F 24.1 °F 68% 29.76 in 10.0 mi WSW 23.0 mph 33.4 mph N/A   Overcast
10:35 AM 33.8 °F 20.8 °F 23.9 °F 67% 29.77 in 10.0 mi WSW 26.5 mph 41.4 mph N/A   Overcast
10:55 AM 33.8 °F 18.8 °F 23.5 °F 66% 29.78 in 10.0 mi WSW 36.8 mph 47.2 mph N/A   Overcast
11:15 AM 33.8 °F 20.3 °F 23.5 °F 66% 29.78 in 10.0 mi WSW 28.8 mph 43.7 mph N/A   Overcast
11:35 AM 33.8 °F 20.5 °F 23.7 °F 67% 29.78 in 10.0 mi West 27.6 mph 38.0 mph N/A   Overcast
11:55 AM 33.4 °F 19.8 °F 23.9 °F 68% 29.79 in 10.0 mi WSW 28.8 mph 36.8 mph N/A   Overcast
12:15 PM 33.6 °F 21.3 °F 24.4 °F 69% 29.79 in 10.0 mi WSW 23.0 mph 33.4 mph N/A   Overcast
12:35 PM 33.8 °F 20.5 °F 24.4 °F 69% 29.79 in 10.0 mi WSW 27.6 mph 40.3 mph N/A   Overcast
12:55 PM 34.0 °F 21.5 °F 24.8 °F 69% 29.80 in 10.0 mi WSW 24.2 mph 38.0 mph N/A   Overcast
1:15 PM 34.0 °F 21.5 °F 25.2 °F 70% 29.81 in 10.0 mi West 24.2 mph 35.7 mph N/A   Overcast
1:35 PM 33.6 °F 19.6 °F 25.0 °F 71% 29.82 in 10.0 mi West 31.1 mph 41.4 mph N/A   Overcast
1:55 PM 33.4 °F 20.8 °F 24.8 °F 71% 29.83 in 10.0 mi West 24.2 mph 38.0 mph N/A   Overcast
2:15 PM 33.1 °F 20.6 °F 24.8 °F 72% 29.83 in 10.0 mi West 23.0 mph 36.8 mph N/A   Overcast
2:35 PM 33.1 °F 20.9 °F 24.8 °F 72% 29.84 in 10.0 mi West 21.9 mph 34.5 mph N/A   Overcast
2:55 PM 32.9 °F 19.3 °F 25.2 °F 73% 29.85 in 10.0 mi West 27.6 mph 33.4 mph N/A   Overcast
3:15 PM 32.9 °F 20.7 °F 25.2 °F 73% 29.86 in 10.0 mi West 21.9 mph 33.4 mph N/A   Overcast
3:35 PM 32.9 °F 20.4 °F 25.0 °F 73% 29.87 in 10.0 mi West 23.0 mph 32.2 mph N/A   Overcast
3:55 PM 32.9 °F 20.1 °F 25.3 °F 74% 29.88 in 10.0 mi WSW 24.2 mph 31.1 mph N/A   Overcast
4:55 PM 32.4 °F 20.3 °F 25.3 °F 75% 29.90 in 10.0 mi West 20.7 mph 26.5 mph N/A   Overcast
5:15 PM 32.2 °F 21.8 °F 25.5 °F 76% 29.91 in 10.0 mi West 15.0 mph 24.2 mph N/A   Overcast
5:35 PM 32.0 °F 18.9 °F 25.0 °F 75% 29.93 in 10.0 mi West 24.2 mph 33.4 mph N/A   Overcast
5:55 PM 32.0 °F 19.2 °F 23.7 °F 71% 29.93 in 10.0 mi West 23.0 mph 29.9 mph N/A   Overcast
6:15 PM 32.0 °F 20.1 °F 24.1 °F 73% 29.94 in 10.0 mi West 19.6 mph 27.6 mph N/A   Overcast
6:35 PM 32.0 °F 19.5 °F 23.0 °F 69% 29.95 in 10.0 mi West 21.9 mph 29.9 mph N/A   Overcast
6:55 PM 32.0 °F 19.5 °F 23.2 °F 70% 29.95 in 10.0 mi West 21.9 mph 29.9 mph N/A   Overcast
7:15 PM 32.0 °F 20.5 °F 23.4 °F 70% 29.95 in 10.0 mi West 18.4 mph 26.5 mph N/A   Overcast
7:35 PM 31.8 °F 18.7 °F 23.5 °F 71% 29.95 in 10.0 mi West 24.2 mph 29.9 mph N/A   Overcast
7:55 PM 31.8 °F 19.9 °F 23.4 °F 71% 29.95 in 10.0 mi West 19.6 mph 27.6 mph N/A   Overcast
8:15 PM 31.6 °F 19.7 °F 23.4 °F 71% 29.96 in 10.0 mi West 19.6 mph 27.6 mph N/A   Overcast
8:35 PM 31.6 °F 18.1 °F 22.6 °F 69% 29.96 in 10.0 mi West 25.3 mph 32.2 mph N/A   Overcast
8:55 PM 31.6 °F 20.0 °F 22.5 °F 69% 29.97 in 10.0 mi West 18.4 mph 26.5 mph N/A   Overcast
9:15 PM 31.5 °F 20.5 °F 23.0 °F 71% 29.97 in 10.0 mi West 16.1 mph 24.2 mph N/A   Overcast
9:35 PM 31.5 °F 19.4 °F 22.8 °F 70% 29.98 in 10.0 mi West 19.6 mph 24.2 mph N/A   Overcast
9:55 PM 31.1 °F 20.5 °F 22.3 °F 70% 29.98 in 10.0 mi West 15.0 mph 23.0 mph N/A   Overcast
10:15 PM 31.1 °F 20.9 °F 23.2 °F 72% 29.99 in 10.0 mi West 13.8 mph 24.2 mph N/A   Overcast
10:35 PM 31.1 °F 20.1 °F 23.0 °F 72% 29.99 in 10.0 mi West 16.1 mph 20.7 mph N/A   Overcast
10:55 PM 31.1 °F 21.4 °F 23.4 °F 73% 30.00 in 10.0 mi West 12.7 mph - N/A   Overcast
11:15 PM 30.9 °F 21.7 °F 23.7 °F 75% 30.00 in 10.0 mi West 11.5 mph 16.1 mph N/A   Overcast
11:35 PM 30.9 °F 19.8 °F 23.5 °F 74% 30.01 in 10.0 mi West 16.1 mph 21.9 mph N/A   Overcast
11:55 PM 30.9 °F 22.2 °F 23.5 °F 74% 30.01 in 10.0 mi West 10.4 mph - N/A   Overcast